TimeCDT,TemperatureF,Dew PointF,Humidity,Sea Level PressureIn,VisibilityMPH,Wind Direction,Wind SpeedMPH,Gust SpeedMPH,PrecipitationIn,Events,Conditions,WindDirDegrees,DateUTC
12:56 AM,75.9,66.9,74,29.60,10.0,South,9.2,-,N/A,,Clear,190,2013-09-19 05:56:00
1:56 AM,75.0,66.0,73,29.60,10.0,South,11.5,-,N/A,,Clear,180,2013-09-19 06:56:00
2:56 AM,73.9,66.0,76,29.61,10.0,NNE,6.9,-,N/A,,Clear,20,2013-09-19 07:56:00
3:56 AM,72.0,66.0,81,29.60,10.0,North,8.1,-,N/A,,Clear,10,2013-09-19 08:56:00
4:56 AM,71.6,64.4,78,29.60,10.0,SSW,8.1,-,N/A,,Mostly Cloudy,210,2013-09-19 09:56:00
5:56 AM,71.1,64.9,81,29.61,10.0,WNW,16.1,29.9,N/A,,Overcast,300,2013-09-19 10:56:00
6:40 AM,69.8,62.6,78,29.67,10.0,NW,20.7,32.2,0.00,Rain-Thunderstorm,Light Thunderstorms and Rain,310,2013-09-19 11:40:00
6:50 AM,66.2,62.6,88,29.69,2.0,NW,19.6,32.2,0.04,Rain-Thunderstorm,Heavy Thunderstorms and Rain,320,2013-09-19 11:50:00
6:56 AM,66.0,63.0,90,29.66,6.0,NNW,13.8,26.5,0.05,Rain-Thunderstorm,Light Thunderstorms and Rain,330,2013-09-19 11:56:00
7:22 AM,64.4,62.6,94,29.68,10.0,North,15.0,21.9,0.00,Rain,Light Rain,350,2013-09-19 12:22:00
7:56 AM,66.0,63.0,90,29.66,10.0,North,18.4,28.8,0.00,,Overcast,350,2013-09-19 12:56:00
8:56 AM,66.9,63.0,87,29.73,10.0,WSW,5.8,17.3,N/A,,Overcast,250,2013-09-19 13:56:00
9:08 AM,66.2,62.6,88,29.76,10.0,West,5.8,-,N/A,,Overcast,270,2013-09-19 14:08:00
9:56 AM,66.9,64.0,90,29.73,10.0,WNW,13.8,-,0.00,,Overcast,300,2013-09-19 14:56:00
10:56 AM,68.0,62.1,81,29.78,10.0,NW,9.2,-,N/A,,Overcast,310,2013-09-19 15:56:00
11:03 AM,68.0,62.6,83,29.81,10.0,NNW,11.5,-,N/A,,Overcast,330,2013-09-19 16:03:00
11:45 AM,66.2,60.8,83,29.84,10.0,NNW,10.4,-,N/A,,Overcast,330,2013-09-19 16:45:00
11:56 AM,66.0,59.0,78,29.83,10.0,NNW,12.7,-,N/A,,Overcast,330,2013-09-19 16:56:00
12:56 PM,69.1,59.0,70,29.84,10.0,NW,10.4,-,N/A,,Mostly Cloudy,320,2013-09-19 17:56:00
1:56 PM,73.9,55.9,53,29.83,10.0,NW,15.0,20.7,N/A,,Mostly Cloudy,310,2013-09-19 18:56:00
2:56 PM,75.0,51.1,43,29.83,10.0,NW,18.4,26.5,N/A,,Mostly Cloudy,310,2013-09-19 19:56:00
3:56 PM,71.1,50.0,47,29.86,10.0,NW,17.3,27.6,N/A,,Mostly Cloudy,310,2013-09-19 20:56:00
4:56 PM,68.0,48.0,49,29.88,10.0,WNW,15.0,25.3,N/A,,Mostly Cloudy,290,2013-09-19 21:56:00
5:56 PM,63.0,48.9,60,29.88,10.0,NW,12.7,-,0.00,,Overcast,310,2013-09-19 22:56:00
6:56 PM,57.9,53.1,84,29.91,10.0,WNW,6.9,-,0.02,Rain,Light Rain,300,2013-09-19 23:56:00
7:56 PM,57.0,54.0,89,29.91,10.0,NW,8.1,-,0.00,,Scattered Clouds,310,2013-09-20 00:56:00
8:56 PM,55.9,52.0,87,29.94,10.0,WNW,8.1,-,N/A,,Partly Cloudy,300,2013-09-20 01:56:00
9:56 PM,53.1,50.0,89,29.96,10.0,NW,5.8,-,N/A,,Partly Cloudy,310,2013-09-20 02:56:00
10:56 PM,54.0,48.0,80,29.97,10.0,WNW,8.1,-,N/A,,Clear,290,2013-09-20 03:56:00
11:56 PM,52.0,46.0,80,29.98,10.0,WNW,9.2,-,N/A,,Clear,290,2013-09-20 04:56:00